Location: Kitt Peak
(31.9639°N, 111.5992°W)
Time: 10:45:31
(UTC-07:00)

Tiangong 2 - Visible Passes

Search period start: 23 June 2018 00:00
Search period end: 03 July 2018 00:00
Orbit: 291 x 296 km, 42.8° (Epoch: 21 June)

Date Brightness Start Highest point End Pass type
(mag) Time Alt. Az. Time Alt. Az. Time Alt. Az.
23 Jun 2.4 04:29:40 12° SSW 04:31:30 23° SE 04:33:36 10° E visible
24 Jun 0.7 04:35:22 15° SW 04:37:22 63° SSE 04:39:53 10° ENE visible
25 Jun 1.2 04:40:56 11° WSW 04:43:14 46° NNW 04:45:43 10° NE visible
26 Jun 3.4 03:16:01 15° E 03:16:01 15° E 03:16:43 10° E visible
26 Jun 2.5 04:47:02 10° W 04:49:08 22° NNW 04:51:16 10° NNE visible
27 Jun 2.7 03:21:20 26° ENE 03:21:20 26° ENE 03:22:39 10° ENE visible
28 Jun 2.5 03:26:32 29° NNE 03:26:32 29° NNE 03:28:12 10° NE visible
29 Jun 2.8 03:31:37 20° NNW 03:31:37 20° NNW 03:33:28 10° NNE visible
30 Jun 3.4 03:36:37 12° NNW 03:37:09 13° NNW 03:38:27 10° NNE visible
